Waarnemingen

Advertentie
Mijn weer
L9F, Nederland (6207): temperatuur & dauwpunt: 23.03.2017 21:00:00 - 29.03.2017 21:00:00 (CEST)L9F, Nederland (6207): windsnelheid & windstoten: 23.03.2017 21:00:00 - 29.03.2017 21:00:00 (CEST)L9F, Nederland (6207): windrichting: 23.03.2017 21:00:00 - 29.03.2017 21:00:00 (CEST)L9F, Nederland (6207): luchtdruk: 23.03.2017 21:00:00 - 29.03.2017 21:00:00 (CEST)L9F, Nederland (6207): zicht: 23.03.2017 21:00:00 - 29.03.2017 21:00:00 (CEST)
Datum & Tijd tt [°C] td [°C] ff [km/u] ff [kn] fx [km/u] fx [kn] dd ppp [hPa] vv [km]
29.03.2017 21:00:00 9,0 8,0 41 22 - - ZW - 10
29.03.2017 20:00:00 9,2 8,3 42 23 40 21 ZW 1021,1 10
29.03.2017 19:00:00 9,5 8,4 39 21 40 21 WZW 1020,8 10
29.03.2017 18:00:00 9,4 8,3 41 22 40 21 WZW 1020,6 10
29.03.2017 17:00:00 9,3 8,4 41 22 40 21 WZW 1020,5 9
29.03.2017 16:00:00 9,3 8,3 39 21 36 19 WZW 1020,6 9
29.03.2017 15:00:00 9,1 8,3 39 21 40 21 WZW 1020,6 9
29.03.2017 14:00:00 9,1 8,4 41 22 40 21 WZW 1020,4 9
29.03.2017 13:00:00 8,7 8,6 39 21 40 21 WZW 1020,3 1,8
29.03.2017 12:00:00 8,9 8,2 37 20 36 19 WZW 1020,2 2,9
29.03.2017 11:00:00 9,0 8,2 42 23 40 21 WZW 1019,6 7
29.03.2017 10:00:00 9,0 8,2 37 20 36 19 WZW 1019,1 6
29.03.2017 09:00:00 8,8 8,4 42 23 43 23 ZW 1019,0 3,4
29.03.2017 08:00:00 9,0 8,5 44 24 43 23 ZW 1018,6 6
29.03.2017 07:00:00 9,1 7,9 44 24 47 25 WZW 1018,4 9
29.03.2017 06:00:00 9,4 7,5 48 26 47 25 WZW 1018,1 9
29.03.2017 05:00:00 9,4 7,7 46 25 47 25 WZW 1018,1 10
29.03.2017 04:00:00 9,7 7,4 44 24 43 23 WZW 1018,2 10
29.03.2017 03:00:00 9,7 7,6 42 23 40 21 WZW 1018,3 10
29.03.2017 02:00:00 9,0 8,0 37 20 36 19 ZW 1018,5 7
29.03.2017 01:00:00 8,8 8,1 34 18 32 18 ZW 1018,7 5
29.03.2017 00:00:00 8,7 8,2 35 19 32 18 WZW 1018,6 3,9
28.03.2017 23:00:00 8,8 8,0 34 18 36 19 WZW 1018,8 4,4
28.03.2017 22:00:00 8,9 7,7 37 20 40 21 ZW 1018,7 3,7
28.03.2017 21:00:00 8,9 7,6 41 22 43 23 ZW 1018,6 6
28.03.2017 20:00:00 9,2 7,0 35 19 36 19 ZW 1018,6 8
28.03.2017 19:00:00 9,6 7,3 29 16 29 16 ZW 1018,7 6
28.03.2017 18:00:00 10,6 7,9 15 8 18 10 ZZW 1019,0 3,4
28.03.2017 17:00:00 9,8 7,9 15 8 14 8 ZW 1019,2 6
28.03.2017 16:00:00 8,7 7,4 11 6 14 8 ZZW 1019,7 10
28.03.2017 15:00:00 7,6 7,1 5 3 7 4 Z 1019,8 10
28.03.2017 14:00:00 7,4 6,7 2 1 14 8 - 1020,2 10
28.03.2017 13:00:00 8,1 7,2 8 4 22 12 - 1020,4 3,2
28.03.2017 12:00:00 8,0 7,2 8 4 11 6 WZW 1020,5 3,6
28.03.2017 11:00:00 8,2 6,7 8 4 11 6 WNW 1020,3 6
28.03.2017 10:00:00 8,2 6,5 15 8 18 10 WZW 1020,2 5
28.03.2017 09:00:00 7,9 6,7 11 6 11 6 ZZW 1019,7 6
28.03.2017 08:00:00 7,4 6,4 13 7 14 8 Z 1019,7 4,0
28.03.2017 07:00:00 8,3 7,1 13 7 18 10 OZO 1019,6 4,3
28.03.2017 06:00:00 7,6 6,1 21 11 22 12 O 1019,7 5
28.03.2017 05:00:00 7,3 5,8 26 14 25 14 O 1020,1 6
28.03.2017 04:00:00 7,4 5,9 29 16 29 16 O 1020,6 7
28.03.2017 03:00:00 8,9 7,0 31 17 29 16 O 1021,0 7
28.03.2017 02:00:00 9,2 6,6 29 16 29 16 O 1021,4 10
28.03.2017 01:00:00 8,7 6,4 29 16 29 16 O 1021,8 10
28.03.2017 00:00:00 8,8 6,9 29 16 29 16 O 1022,2 7
27.03.2017 23:00:00 7,2 6,1 24 13 29 16 O 1022,6 7
27.03.2017 22:00:00 10,4 8,1 31 17 29 16 O 1022,8 1,2
27.03.2017 21:00:00 6,3 5,6 18 10 25 14 O 1022,8 0,5
27.03.2017 20:00:00 6,2 5,8 26 14 29 16 ONO 1022,5 0,4
27.03.2017 19:00:00 6,3 5,6 22 12 29 16 ONO 1022,3 0,7
27.03.2017 18:00:00 6,8 5,9 28 15 29 16 ONO 1022,8 3,8
27.03.2017 17:00:00 6,3 5,7 28 15 29 16 ONO 1023,2 1,2
27.03.2017 16:00:00 6,5 5,7 28 15 29 16 ONO 1023,6 1,9
27.03.2017 15:00:00 7,9 6,3 24 13 25 14 O 1024,2 7
27.03.2017 14:00:00 7,1 5,8 21 11 22 12 ONO 1024,9 2,6
27.03.2017 13:00:00 8,7 7,0 13 7 14 8 O 1025,6 3,8
27.03.2017 12:00:00 5,9 5,3 16 9 22 12 O 1025,8 1,4
27.03.2017 11:00:00 5,4 5,1 15 8 25 14 O 1025,4 0,4
27.03.2017 10:00:00 6,2 5,7 26 14 29 16 O 1025,6 0,5
27.03.2017 09:00:00 5,7 5,3 22 12 25 14 O 1025,7 0,5
27.03.2017 08:00:00 6,0 5,4 24 13 29 16 O 1025,7 0,9
27.03.2017 07:00:00 6,4 5,1 28 15 29 16 O 1025,4 7
27.03.2017 06:00:00 6,9 6,0 24 13 25 14 ONO 1025,6 0,7
27.03.2017 05:00:00 7,9 7,4 18 10 22 12 O 1025,8 0,8
27.03.2017 04:00:00 7,2 6,5 18 10 22 12 O 1026,1 1,0
27.03.2017 03:00:00 6,1 5,3 18 10 25 14 O 1026,6 1,5
27.03.2017 02:00:00 7,0 5,5 24 13 29 16 O 1026,7 10
27.03.2017 01:00:00 9,1 6,4 21 11 22 12 ONO 1026,9 10
27.03.2017 00:00:00 8,4 6,3 21 11 25 14 O 1026,9 10
26.03.2017 23:00:00 7,3 5,1 21 11 22 12 ONO 1027,0 10
26.03.2017 22:00:00 6,5 5,3 24 13 29 16 O 1026,9 1,7
26.03.2017 21:00:00 7,8 5,6 28 15 25 14 O 1026,4 10
26.03.2017 20:00:00 7,7 5,1 24 13 25 14 O 1026,4 10
26.03.2017 19:00:00 7,2 4,4 24 13 25 14 ONO 1026,5 10
26.03.2017 18:00:00 6,8 4,3 22 12 22 12 ONO 1026,8 10
26.03.2017 17:00:00 7,0 4,6 24 13 25 14 ONO 1027,0 10
26.03.2017 16:00:00 6,8 4,6 22 12 25 14 ONO 1027,4 10
26.03.2017 15:00:00 7,4 5,6 24 13 25 14 ONO 1027,6 10
26.03.2017 14:00:00 7,2 6,0 21 11 22 12 ONO 1027,6 10
26.03.2017 13:00:00 7,3 5,8 18 10 22 12 NO 1027,6 10
26.03.2017 12:00:00 7,4 5,6 18 10 18 10 NO 1027,7 10
26.03.2017 11:00:00 7,6 5,2 21 11 22 12 ONO 1027,9 10
26.03.2017 10:00:00 7,6 5,3 21 11 18 10 NO 1027,8 10
26.03.2017 09:00:00 7,3 5,5 21 11 18 10 NO 1027,5 10
26.03.2017 08:00:00 7,2 5,9 15 8 14 8 NO 1027,3 10
26.03.2017 07:00:00 7,2 5,9 18 10 18 10 NO 1027,2 10
26.03.2017 06:00:00 7,2 5,8 18 10 22 12 ONO 1027,1 10
26.03.2017 05:00:00 7,2 5,7 21 11 18 10 NO 1027,3 10
26.03.2017 04:00:00 7,3 5,6 16 9 18 10 NO 1027,7 10
26.03.2017 03:00:00 7,3 5,6 18 10 18 10 NO 1028,1 10
26.03.2017 02:00:00 7,2 5,6 16 9 14 8 NO 1028,3 10
26.03.2017 01:00:00 7,2 5,5 15 8 18 10 NO 1028,6 10
26.03.2017 00:00:00 7,2 5,6 22 12 22 12 NO 1029,6 10
25.03.2017 23:00:00 7,3 5,5 18 10 18 10 NNO 1029,7 10
25.03.2017 22:00:00 7,3 5,0 13 7 18 10 NNO 1029,4 10
25.03.2017 21:00:00 7,3 4,6 13 7 14 8 NO 1029,4 10
25.03.2017 20:00:00 7,6 4,4 15 8 14 8 NNO 1029,5 10
25.03.2017 19:00:00 7,7 4,0 15 8 18 10 NNO 1029,2 10
25.03.2017 18:00:00 7,6 3,4 13 7 14 8 N 1029,6 10
25.03.2017 17:00:00 7,9 2,4 16 9 18 10 NNO 1030,6 10
25.03.2017 16:00:00 7,6 -0,3 18 10 18 10 N 1031,3 10
25.03.2017 15:00:00 7,4 1,1 15 8 18 10 N 1032,1 10
25.03.2017 14:00:00 7,2 1,4 11 6 11 6 N 1032,9 10
25.03.2017 13:00:00 7,1 1,9 11 6 11 6 N 1033,7 10
25.03.2017 12:00:00 7,0 2,2 9 5 11 6 N 1033,9 10
25.03.2017 11:00:00 7,0 2,0 9 5 11 6 NNO 1034,0 10
25.03.2017 10:00:00 6,9 2,5 11 6 14 8 NNO 1033,9 10
25.03.2017 09:00:00 6,7 2,8 13 7 14 8 NO 1033,7 10
25.03.2017 08:00:00 6,6 3,0 16 9 18 10 NNO 1033,7 10
25.03.2017 07:00:00 6,7 3,3 13 7 14 8 NO 1033,5 10
25.03.2017 06:00:00 6,7 3,4 13 7 11 6 NO 1033,6 10
25.03.2017 05:00:00 6,7 3,2 13 7 14 8 NNO 1033,8 10
25.03.2017 04:00:00 6,9 3,2 13 7 11 6 NNO 1034,3 10
25.03.2017 03:00:00 8,6 4,7 9 5 11 6 ONO 1034,9 10
25.03.2017 02:00:00 10,0 5,6 13 7 14 8 O 1035,2 10
25.03.2017 01:00:00 10,7 6,0 16 9 18 10 ONO 1035,1 10
25.03.2017 00:00:00 10,8 5,5 16 9 18 10 ONO 1034,9 10
24.03.2017 23:00:00 7,8 4,5 21 11 22 12 ONO 1034,9 10
24.03.2017 22:00:00 7,2 4,0 22 12 25 14 NO 1034,7 10
24.03.2017 21:00:00 7,3 4,1 28 15 32 18 NO 1034,3 10
24.03.2017 20:00:00 7,4 3,7 31 17 32 18 NO 1033,4 10
24.03.2017 19:00:00 7,5 4,0 34 18 32 18 NO 1032,6 10
24.03.2017 18:00:00 7,4 4,5 35 19 32 18 NO 1033,0 10
24.03.2017 17:00:00 7,5 4,4 29 16 29 16 NO 1033,3 10
24.03.2017 16:00:00 7,5 3,4 22 12 22 12 ONO 1033,5 10
24.03.2017 15:00:00 7,4 2,9 22 12 22 12 ONO 1033,7 10
24.03.2017 14:00:00 9,3 3,7 22 12 25 14 O 1033,8 10
24.03.2017 13:00:00 7,6 2,7 24 13 29 16 O 1033,3 10
24.03.2017 12:00:00 7,8 3,1 28 15 29 16 O 1032,8 10
24.03.2017 11:00:00 8,2 2,9 31 17 32 18 O 1032,3 10
24.03.2017 10:00:00 8,2 3,8 35 19 36 19 O 1031,4 10
24.03.2017 09:00:00 7,6 4,2 34 18 36 19 ONO 1030,8 10
24.03.2017 08:00:00 7,3 4,1 34 18 32 18 ONO 1030,2 10
24.03.2017 07:00:00 7,5 4,3 34 18 32 18 ONO 1029,8 10
24.03.2017 06:00:00 7,6 4,7 34 18 36 19 ONO 1029,2 10
24.03.2017 05:00:00 6,8 4,1 37 20 36 19 ONO 1028,5 10
24.03.2017 04:00:00 7,0 4,0 37 20 40 21 ONO 1028,3 10
24.03.2017 03:00:00 7,0 3,9 39 21 40 21 ONO 1027,8 10
24.03.2017 02:00:00 7,0 4,0 41 22 40 21 ONO 1027,1 10
24.03.2017 01:00:00 7,2 4,0 42 23 43 23 ONO 1026,7 10
24.03.2017 00:00:00 7,5 4,2 46 25 43 23 ONO 1026,2 10
23.03.2017 23:00:00 7,5 4,0 48 26 47 25 ONO 1025,7 10
23.03.2017 22:00:00 7,5 4,3 48 26 47 25 ONO 1025,3 10
23.03.2017 21:00:00 - - - - - - - - -

tt = temperatuur
td = dauwpunt
ff = windsnelheid
fx = windstoten
dd = windrichting
ppp = luchtdruk
vv = zicht

Weerstations in de omgeving